Total_Precipitation_Accumulation
1.27 1.38 1.72 1.63 1.54 1.61 1.68 1.66 1.73 1.81 1.95 2.21 2.40 2.60 2.74 3.01 3.10 3.14 3.19 3.58 3.97 4.12 4.24 4.31 3.94 3.53 3.28 3.25 3.07 2.63 2.26 2.10 1.99 1.91 1.89 1.92 2.01 2.20 2.51 2.66 2.50 1.89 1.84
0.90 1.09 1.51 1.52 1.48 1.50 1.41 1.42 1.59 1.75 1.88 2.07 2.33 2.63 2.68 2.87 3.00 2.93 3.14 3.65 4.04 4.01 3.91 3.80 3.46 3.14 2.97 2.86 2.49 2.03 1.88 1.98 2.25 2.32 2.30 2.08 2.17 2.42 2.57 2.43 2.55 1.91 1.73
0.74 0.94 1.25 1.42 1.45 1.41 1.25 1.37 1.53 1.57 1.73 1.99 2.26 2.59 2.63 2.75 2.88 2.97 3.25 3.54 3.70 3.63 3.47 3.34 3.12 2.84 2.58 2.20 1.81 1.64 1.71 2.01 2.49 2.79 2.76 2.07 1.77 2.20 2.31 2.15 1.99 1.74 1.64
0.82 0.98 1.17 1.25 1.29 1.28 1.19 1.34 1.54 1.62 1.75 1.95 2.14 2.38 2.49 2.60 2.78 3.05 3.24 3.22 3.30 3.26 3.16 2.97 2.64 2.38 2.11 1.76 1.58 1.58 1.73 1.99 2.48 2.93 2.82 1.94 1.43 1.68 1.80 1.74 1.78 1.55 1.46
0.83 0.97 1.18 1.16 1.16 1.19 1.22 1.45 1.59 1.68 1.81 1.91 2.09 2.30 2.41 2.50 2.64 2.95 3.08 3.00 3.05 2.96 2.69 2.45 2.27 2.04 1.76 1.57 1.47 1.49 1.71 2.06 2.52 2.49 1.97 1.91 1.79 1.73 1.56 1.56 1.58 1.35 1.21
0.78 0.88 1.16 1.15 1.04 1.12 1.34 1.49 1.51 1.63 1.75 1.85 2.03 2.19 2.33 2.35 2.51 2.75 2.73 2.67 2.63 2.54 2.39 2.32 2.14 1.87 1.58 1.39 1.36 1.43 1.64 2.01 2.02 1.45 1.35 1.46 1.45 1.54 1.48 1.67 1.54 1.32 1.21
0.85 0.87 1.03 1.09 1.00 1.10 1.25 1.38 1.43 1.50 1.68 1.82 2.03 2.18 2.25 2.29 2.39 2.42 2.33 2.30 2.34 2.23 2.09 2.01 1.88 1.69 1.52 1.40 1.38 1.40 1.60 1.99 1.51 1.06 1.22 1.53 1.36 1.26 1.33 1.74 1.67 1.43 1.26
0.78 0.73 0.85 1.06 1.03 1.08 1.21 1.36 1.48 1.47 1.61 1.81 1.90 2.03 2.01 1.94 1.94 1.96 2.08 2.19 2.13 1.96 1.82 1.71 1.58 1.51 1.46 1.42 1.39 1.43 1.60 1.64 1.06 1.02 1.15 1.27 1.11 1.15 1.27 1.63 1.77 1.78 1.68
0.73 0.74 0.81 0.90 0.88 1.03 1.34 1.56 1.64 1.61 1.68 1.72 1.72 1.88 1.87 1.80 1.78 1.78 1.86 1.97 1.87 1.71 1.57 1.52 1.37 1.23 1.12 1.19 1.19 1.32 1.58 1.62 1.22 1.16 1.06 1.04 0.90 1.01 1.27 1.49 1.66 1.84 1.81
0.92 0.89 0.93 0.94 0.87 0.89 1.17 1.56 1.82 1.86 1.80 1.77 1.87 1.96 1.95 1.93 1.88 1.85 1.63 1.68 1.72 1.59 1.55 1.53 1.42 1.18 1.09 1.16 1.23 1.39 1.60 1.35 1.27 1.17 1.24 1.15 1.00 1.14 1.41 1.52 1.51 1.51 1.44
1.25 1.16 1.11 0.98 0.93 0.96 1.08 1.34 1.63 1.89 2.07 2.14 2.18 2.12 2.17 2.22 2.15 2.20 1.88 2.01 1.95 1.79 1.75 1.78 1.64 1.38 1.25 1.23 1.48 1.76 1.50 1.21 1.38 1.38 1.38 1.29 1.23 1.46 1.72 1.71 1.63 1.53 1.40
1.53 1.21 1.19 1.09 1.07 1.06 0.97 1.17 1.48 1.57 1.86 2.12 2.22 2.21 2.45 2.63 2.68 2.28 2.55 2.66 2.47 2.38 2.23 2.22 2.28 1.92 1.53 1.49 2.06 2.34 1.45 1.20 1.21 1.28 1.33 1.33 1.58 1.86 2.05 1.90 1.76 1.72 1.62
1.47 1.49 1.50 1.37 1.36 1.32 1.37 1.24 1.43 1.68 1.95 2.01 2.02 2.25 2.64 2.59 2.54 2.42 2.60 2.99 3.02 2.97 2.83 2.82 2.80 2.33 2.16 2.36 2.52 2.23 1.65 1.53 1.52 1.54 1.63 1.79 2.08 2.36 2.39 2.11 1.97 1.92 1.87
1.79 2.04 2.16 1.89 1.90 1.80 1.59 1.49 1.49 1.63 1.89 2.11 2.37 2.49 2.62 2.90 2.94 2.76 2.78 2.92 3.03 3.13 3.52 3.36 3.19 2.88 2.75 2.59 2.49 2.21 1.99 1.97 1.99 2.16 2.39 2.13 2.19 2.51 2.64 2.45 2.30 2.21 2.15
2.50 2.75 2.94 2.53 2.44 2.33 2.33 2.24 1.95 2.03 2.19 2.39 2.64 2.84 2.88 3.16 3.34 3.30 3.12 3.01 2.79 2.83 3.17 3.43 3.28 3.27 3.13 2.91 2.60 2.39 2.27 2.18 2.11 2.29 2.45 2.53 2.49 2.51 2.76 2.93 2.80 2.57 2.47
3.00 3.18 3.32 3.21 3.25 3.09 2.87 2.92 2.87 2.49 2.59 2.64 2.74 2.84 3.00 3.28 3.71 3.82 3.60 3.42 3.01 2.86 2.92 3.22 3.28 3.53 3.44 3.21 2.60 2.45 2.41 2.38 2.41 2.38 2.53 3.02 3.03 2.62 2.68 3.02 3.23 3.23 3.06
3.83 3.78 3.84 3.81 4.11 4.01 3.62 3.30 3.00 2.81 2.77 3.00 3.06 3.12 3.18 3.43 3.83 3.80 3.57 3.17 2.83 2.79 3.02 3.04 3.04 3.33 3.19 3.07 2.94 2.91 2.83 2.69 2.57 2.54 2.62 3.10 3.07 2.69 2.56 2.67 3.05 3.36 3.43
4.67 4.61 4.41 4.00 4.42 4.48 4.20 4.00 3.60 3.31 3.38 3.39 3.11 3.25 3.18 3.34 3.30 3.38 3.09 2.74 2.74 2.86 3.03 3.23 3.13 3.24 3.28 3.36 3.45 3.37 3.15 2.98 2.55 2.36 2.25 2.38 2.65 2.36 2.52 2.77 2.91 3.02 3.40
5.11 5.34 5.32 5.23 5.01 4.78 4.59 4.45 4.26 4.09 3.81 3.43 3.27 3.36 3.07 2.76 2.58 2.80 2.79 2.75 2.66 2.81 2.88 2.69 3.08 3.37 3.41 3.44 3.17 3.24 2.85 2.73 2.50 2.18 2.11 2.07 2.24 2.38 2.43 2.48 2.66 2.72 3.16
5.04 5.63 5.85 5.95 5.67 5.20 4.73 4.38 4.30 4.06 3.81 3.53 3.31 3.28 2.86 2.64 2.39 2.69 2.70 2.67 2.65 2.80 2.90 3.01 3.31 3.46 3.16 3.11 2.79 2.72 2.46 2.13 2.14 2.09 1.92 2.00 2.13 2.03 2.20 2.36 2.70 2.49 2.92
4.59 5.31 5.48 5.86 5.46 4.84 4.29 3.87 3.76 3.60 3.29 3.17 3.05 3.00 2.90 2.65 2.57 2.83 2.71 2.80 2.62 2.68 2.66 2.74 3.03 3.17 2.81 2.88 3.35 2.96 2.35 1.95 2.00 1.90 1.92 2.00 1.98 2.00 2.22 2.54 2.79 2.87 2.85
3.94 4.68 4.77 4.51 4.36 3.95 3.61 3.46 3.30 3.27 2.93 2.76 2.65 2.78 2.59 2.43 2.54 2.59 2.74 2.58 2.50 2.63 2.61 2.65 2.93 2.91 2.60 2.79 3.28 3.45 2.94 2.56 2.23 1.81 1.84 1.89 1.94 2.15 2.23 2.27 2.73 3.06 3.00
3.59 3.69 3.35 3.23 3.34 3.31 3.16 3.10 3.00 3.02 2.82 2.60 2.48 2.56 2.39 2.21 2.28 2.35 2.32 2.36 2.47 2.21 2.39 2.61 2.77 2.84 2.76 2.67 2.89 3.39 3.22 2.89 2.53 2.11 1.95 2.05 2.22 2.37 2.41 2.54 2.60 2.83 3.03
2.74 2.66 2.64 2.64 2.72 2.93 2.93 2.73 2.58 2.37 2.32 2.31 2.25 2.34 2.38 2.14 2.05 2.08 2.09 2.28 2.37 2.28 2.54 2.24 2.38 2.66 2.88 2.68 2.68 2.70 2.77 3.01 3.01 2.61 2.26 2.13 2.21 2.34 2.43 2.41 2.46 2.71 2.93
2.06 2.15 2.15 2.47 2.60 2.62 2.60 2.58 2.66 2.42 2.31 2.31 2.46 2.70 2.63 2.29 1.95 1.80 1.93 2.15 2.29 2.33 2.41 2.33 2.43 2.43 2.49 2.53 2.59 2.59 2.73 2.97 2.81 2.72 2.57 2.36 2.25 2.10 2.17 2.29 2.48 2.70 2.79
1.38 1.54 1.69 2.02 2.26 2.32 2.27 2.28 2.36 2.43 2.47 2.32 2.32 2.42 2.37 2.23 2.02 1.83 1.87 2.12 2.20 2.28 2.33 2.36 2.32 2.25 2.33 2.42 2.46 2.50 2.70 2.74 2.71 2.78 2.61 2.44 2.29 2.01 1.98 2.08 2.28 2.40 2.50